EW8495 Weather Reports


time (UTC)temp
C
wind
direction
speed
KPH
gust
KPH
rain 1hr
cm
rain 24hr
cm
rain mn
cm
humidity
%
barometer
mb
20260905191019 36 229 1.6 12.9 0.00 0.00 0.00 49 1012.7
20260905190527 36 183 4.8 12.9 0.00 0.00 0.00 48 1012.7
20260905190056 35 180 3.2 11.3 0.00 0.00 0.00 49 1012.8
20260905185521 35 0 0.0 4.8 0.00 0.00 0.00 57 1012.8
20260905185019 35 0 0.0 4.8 0.00 0.00 0.00 55 1012.9
20260905184557 35 350 1.6 4.8 0.00 0.00 0.00 56 1013.1
20260905184018 34 37 0.0 4.8 0.00 0.00 0.00 61 1013.1
20260905183518 34 74 0.0 8.0 0.00 0.00 0.00 57 1013.1
20260905183036 34 0 0.0 8.0 0.00 0.00 0.00 59 1013.2
20260905182518 34 315 3.2 8.0 0.00 0.00 0.00 57 1013.1
20260905182018 35 37 1.6 6.4 0.00 0.00 0.00 58 1013.2
20260905181543 35 0 0.0 6.4 0.00 0.00 0.00 59 1013.3
20260905181022 34 223 1.6 6.4 0.00 0.00 0.00 59 1013.4
20260905180521 34 313 1.6 12.9 0.00 0.00 0.00 58 1013.4
20260905180036 34 94 1.6 12.9 0.00 0.00 0.00 57 1013.4
20260905175521 34 296 3.2 12.9 0.00 0.00 0.00 59 1013.4
20260905175020 34 319 1.6 9.7 0.00 0.00 0.00 60 1013.4
20260905174544 34 344 1.6 6.4 0.00 0.00 0.00 64 1013.5
20260905174018 34 42 1.6 6.4 0.00 0.00 0.00 63 1013.5
20260905173519 34 0 0.0 6.4 0.00 0.00 0.00 61 1013.5
20260905173040 34 360 1.6 8.0 0.00 0.00 0.00 60 1013.5
20260905172516 33 0 1.6 8.0 0.00 0.00 0.00 63 1013.7
20260905172021 33 126 0.0 9.7 0.00 0.00 0.00 63 1014.0
20260905171539 33 113 4.8 9.7 0.00 0.00 0.00 62 1014.1
20260905171020 33 167 1.6 6.4 0.00 0.00 0.00 60 1014.1
20260905170520 33 34 1.6 6.4 0.00 0.00 0.00 60 1014.2
20260905170035 33 322 1.6 6.4 0.00 0.00 0.00 63 1014.1
20260905165519 33 0 1.6 4.8 0.00 0.00 0.00 60 1014.2
20260905165019 33 311 0.0 4.8 0.00 0.00 0.00 62 1014.3
20260905164535 33 309 1.6 4.8 0.00 0.00 0.00 64 1014.4
20260905164017 32 167 1.6 4.8 0.00 0.00 0.00 60 1014.4
20260905163516 32 105 1.6 6.4 0.00 0.00 0.00 62 1014.4
20260905163040 32 90 1.6 6.4 0.00 0.00 0.00 63 1014.4
20260905162520 33 41 1.6 9.7 0.00 0.00 0.00 63 1014.4
20260905162021 33 125 3.2 9.7 0.00 0.00 0.00 63 1014.3
20260905161537 33 292 1.6 6.4 0.00 0.00 0.00 61 1014.4
20260905161020 32 348 0.0 4.8 0.00 0.00 0.00 63 1014.5
20260905160519 32 196 0.0 4.8 0.00 0.00 0.00 62 1014.5
20260905160036 32 336 1.6 4.8 0.00 0.00 0.00 61 1014.7
20260905155517 32 0 0.0 8.0 0.00 0.00 0.00 60 1014.8
20260905155018 32 352 1.6 9.7 0.00 0.00 0.00 63 1014.8
20260905154540 32 310 1.6 11.3 0.00 0.00 0.00 61 1014.7
20260905154020 32 15 1.6 11.3 0.00 0.00 0.00 62 1014.7
20260905153521 32 0 1.6 6.4 0.00 0.00 0.00 64 1014.7
20260905153038 32 42 1.6 6.4 0.00 0.00 0.00 61 1014.9
20260905152521 32 0 0.0 6.4 0.00 0.00 0.00 63 1015.0
20260905152020 32 333 1.6 12.9 0.00 0.00 0.00 62 1014.8
20260905151542 32 329 1.6 17.7 0.00 0.00 0.00 64 1014.8
20260905151019 31 352 3.2 17.7 0.00 0.00 0.00 64 1014.7
20260905150520 31 360 6.4 17.7 0.00 0.00 0.00 63 1014.8
20260905150042 31 352 4.8 12.9 0.00 0.00 0.00 68 1014.8
20260905145517 31 341 3.2 12.9 0.00 0.00 0.00 67 1014.7
20260905145019 31 325 3.2 12.9 0.00 0.00 0.00 65 1014.7
20260905144543 31 350 4.8 9.7 0.00 0.00 0.00 67 1014.9
20260905144020 31 333 1.6 6.4 0.00 0.00 0.00 67 1014.9
20260905143516 31 0 1.6 6.4 0.00 0.00 0.00 66 1014.8
20260905143039 31 320 1.6 4.8 0.00 0.00 0.00 69 1014.8
20260905142523 30 0 1.6 4.8 0.00 0.00 0.00 69 1014.9
20260905142018 30 0 0.0 1.6 0.00 0.00 0.00 75 1014.8
20260905141543 30 0 0.0 1.6 0.00 0.00 0.00 72 1014.7
20260905141020 30 0 0.0 4.8 0.00 0.00 0.00 69 1014.7
20260905140519 30 0 0.0 4.8 0.00 0.00 0.00 71 1014.7
20260905140041 30 141 0.0 4.8 0.00 0.00 0.00 71 1014.7
20260905135516 30 117 0.0 3.2 0.00 0.00 0.00 73 1014.7
20260905135018 29 0 0.0 1.6 0.00 0.00 0.00 75 1014.6
20260905134537 29 0 0.0 1.6 0.00 0.00 0.00 74 1014.6
20260905134023 29 0 0.0 3.2 0.00 0.00 0.00 75 1014.6
20260905133520 28 0 0.0 3.2 0.00 0.00 0.00 73 1014.7
20260905133037 28 0 0.0 3.2 0.00 0.00 0.00 75 1014.7
20260905132522 28 115 0.0 3.2 0.00 0.00 0.00 76 1014.7
20260905132020 28 0 1.6 6.4 0.00 0.00 0.00 77 1014.7
20260905131553 28 150 1.6 6.4 0.00 0.00 0.00 78 1014.7
20260905131018 27 161 0.0 6.4 0.00 0.00 0.00 81 1014.8
20260905130519 27 0 1.6 6.4 0.00 0.00 0.00 82 1014.9
20260905130040 26 161 0.0 3.2 0.00 0.00 0.00 88 1014.9
20260905125518 25 161 0.0 1.6 0.00 0.00 0.00 90 1014.9
20260905125018 25 0 0.0 1.6 0.00 0.00 0.00 90 1014.9
20260905124548 25 0 0.0 1.6 0.00 0.00 0.00 91 1014.9
20260905124022 25 0 0.0 1.6 0.00 0.00 0.00 91 1014.9
20260905123519 25 0 0.0 0.0 0.00 0.00 0.00 91 1015.0
20260905123053 24 0 0.0 0.0 0.00 0.00 0.00 91 1015.1
20260905122520 24 0 0.0 0.0 0.00 0.00 0.00 91 1015.1
20260905122020 24 0 0.0 0.0 0.00 0.00 0.00 91 1015.0
20260905121536 24 0 0.0 0.0 0.00 0.00 0.00 91 1015.0
20260905121017 24 0 0.0 0.0 0.00 0.00 0.00 90 1014.9
20260905120522 24 0 0.0 0.0 0.00 0.00 0.00 90 1015.0
20260905120040 24 0 0.0 0.0 0.00 0.00 0.00 90 1014.8
20260905115518 24 0 0.0 0.0 0.00 0.00 0.00 90 1014.9
20260905115021 24 0 0.0 0.0 0.00 0.00 0.00 89 1014.8
20260905114544 24 0 0.0 1.6 0.00 0.00 0.00 89 1014.8
20260905114018 24 0 0.0 1.6 0.00 0.00 0.00 90 1014.9
20260905113518 24 0 0.0 3.2 0.00 0.00 0.00 89 1014.9
20260905113041 24 0 0.0 3.2 0.00 0.00 0.00 89 1014.7
20260905112516 24 161 0.0 1.6 0.00 0.00 0.00 88 1014.6
20260905112019 25 0 0.0 1.6 0.00 0.00 0.00 88 1014.5
20260905111550 25 0 0.0 1.6 0.00 0.00 0.00 88 1014.4
20260905111023 25 0 0.0 1.6 0.00 0.00 0.00 87 1014.3
20260905110520 25 0 0.0 1.6 0.00 0.00 0.00 87 1014.1
20260905110037 25 0 0.0 1.6 0.00 0.00 0.00 87 1014.0
20260905105521 25 0 0.0 3.2 0.00 0.00 0.00 87 1014.0
20260905105019 25 161 0.0 3.2 0.00 0.00 0.00 86 1013.9
20260905104540 25 161 0.0 3.2 0.00 0.00 0.00 85 1013.9
20260905104018 25 0 0.0 1.6 0.00 0.00 0.00 84 1013.9
20260905103520 25 0 0.0 3.2 0.00 0.00 0.00 84 1013.9
20260905103038 25 0 0.0 4.8 0.00 0.00 0.00 84 1014.0
20260905102519 25 161 0.0 8.0 0.00 0.00 0.00 84 1014.1
20260905102020 25 198 1.6 8.0 0.00 0.00 0.00 85 1014.1
20260905101541 25 187 1.6 6.4 0.00 0.00 0.00 85 1014.1
20260905101020 25 187 0.0 1.6 0.00 0.00 0.00 87 1014.2
20260905100520 25 0 0.0 3.2 0.00 0.00 0.00 87 1014.2
20260905100038 25 0 0.0 3.2 0.00 0.00 0.00 87 1014.1
20260905095519 25 0 0.0 0.0 0.00 0.00 0.00 88 1014.1
20260905095018 25 0 0.0 0.0 0.00 0.00 0.00 88 1014.0
20260905094538 25 0 0.0 3.2 0.00 0.00 0.00 88 1014.0
20260905094020 25 0 0.0 3.2 0.00 0.00 0.00 88 1014.0
20260905093516 25 0 0.0 1.6 0.00 0.00 0.00 88 1014.0
20260905093039 25 0 0.0 0.0 0.00 0.00 0.00 88 1014.0
20260905092524 25 0 0.0 0.0 0.00 0.00 0.00 88 1013.8
20260905092025 25 0 0.0 0.0 0.00 0.00 0.00 88 1013.8
20260905091539 25 0 0.0 0.0 0.00 0.00 0.00 88 1013.7
20260905091021 25 0 0.0 0.0 0.00 0.00 0.00 88 1013.7
20260905090520 25 0 0.0 1.6 0.00 0.00 0.00 88 1013.7
20260905090040 25 0 0.0 1.6 0.00 0.00 0.00 88 1013.6
20260905085517 25 0 0.0 3.2 0.00 0.00 0.00 88 1013.4
20260905085019 25 0 0.0 3.2 0.00 0.00 0.00 88 1013.4
20260905084558 25 0 0.0 3.2 0.00 0.00 0.00 88 1013.4
20260905084021 25 0 0.0 3.2 0.00 0.00 0.00 88 1013.4
20260905083521 25 304 0.0 1.6 0.00 0.00 0.00 88 1013.4
20260905083038 25 0 0.0 0.0 0.00 0.00 0.00 88 1013.4
20260905082520 25 0 0.0 0.0 0.00 0.00 0.00 88 1013.4
20260905082019 25 0 0.0 0.0 0.00 0.00 0.00 88 1013.4
20260905081539 25 0 0.0 0.0 0.00 0.00 0.00 88 1013.5
20260905081020 25 0 0.0 0.0 0.00 0.00 0.00 88 1013.5
20260905080518 25 0 0.0 0.0 0.00 0.00 0.00 88 1013.5
20260905080038 25 0 0.0 0.0 0.00 0.00 0.00 88 1013.5
20260905075525 25 0 0.0 0.0 0.00 0.00 0.00 88 1013.6
20260905075019 25 0 0.0 0.0 0.00 0.00 0.00 88 1013.6
20260905074539 25 0 0.0 0.0 0.00 0.00 0.00 88 1013.5
20260905074019 25 0 0.0 0.0 0.00 0.00 0.00 88 1013.6
20260905073523 25 0 0.0 0.0 0.00 0.00 0.00 88 1013.6
20260905073041 25 0 0.0 0.0 0.00 0.00 0.00 88 1013.8
20260905072517 25 0 0.0 0.0 0.00 0.00 0.00 88 1013.8
20260905072020 25 0 0.0 0.0 0.00 0.00 0.00 88 1013.8
20260905071540 25 0 0.0 0.0 0.00 0.00 0.00 88 1013.8
20260905071017 25 0 0.0 0.0 0.00 0.00 0.00 88 1013.9
20260905070516 25 0 0.0 0.0 0.00 0.00 0.00 88 1013.8
20260905070042 25 0 0.0 0.0 0.00 0.00 0.00 88 1013.8
20260905065519 25 0 0.0 0.0 0.00 0.00 0.00 88 1013.8
20260905065021 25 0 0.0 0.0 0.00 0.00 0.00 88 1013.9
20260905064539 25 0 0.0 0.0 0.00 0.00 0.00 88 1013.9
20260905064021 25 0 0.0 0.0 0.00 0.00 0.00 88 1013.9
20260905063522 25 0 0.0 0.0 0.00 0.00 0.00 88 1014.0
20260905063038 25 0 0.0 0.0 0.00 0.00 0.00 88 1014.0
20260905062519 25 0 0.0 0.0 0.00 0.00 0.00 88 1014.1
20260905062018 25 0 0.0 0.0 0.00 0.00 0.00 88 1014.1
20260905061541 25 0 0.0 0.0 0.00 0.00 0.00 88 1014.2
20260905061017 25 0 0.0 0.0 0.00 0.00 0.00 88 1014.2
20260905060518 25 0 0.0 0.0 0.00 0.00 0.00 88 1014.2
20260905060039 25 0 0.0 0.0 0.00 0.00 0.00 88 1014.2
20260905055521 25 0 0.0 0.0 0.00 0.00 0.00 88 1014.3
20260905055021 25 0 0.0 0.0 0.00 0.00 0.00 87 1014.3
20260905054538 25 0 0.0 0.0 0.00 0.00 0.00 87 1014.3
20260905054020 25 0 0.0 0.0 0.00 0.00 0.00 87 1014.3
20260905053521 25 0 0.0 0.0 0.00 0.00 0.00 86 1014.4
20260905053035 25 0 0.0 0.0 0.00 0.00 0.00 86 1014.4
20260905052520 25 0 0.0 0.0 0.00 0.00 0.00 86 1014.5
20260905052018 25 0 0.0 0.0 0.00 0.00 0.00 86 1014.5
20260905051541 26 0 0.0 0.0 0.00 0.00 0.00 86 1014.4
20260905051019 26 0 0.0 0.0 0.00 0.00 0.00 86 1014.4
20260905050519 26 0 0.0 1.6 0.00 0.00 0.00 86 1014.3
20260905050038 26 0 0.0 1.6 0.00 0.00 0.00 86 1014.2
20260905045521 26 0 0.0 1.6 0.00 0.00 0.00 86 1014.2
20260905045022 26 0 0.0 1.6 0.00 0.00 0.00 85 1014.3
20260905044540 26 0 0.0 1.6 0.00 0.00 0.00 85 1014.3
20260905044021 26 0 0.0 1.6 0.00 0.00 0.00 84 1014.4
20260905043521 26 0 0.0 0.0 0.00 0.00 0.00 84 1014.4
20260905043045 26 0 0.0 0.0 0.00 0.00 0.00 84 1014.4
20260905042520 26 0 0.0 0.0 0.00 0.00 0.00 83 1014.4
20260905042019 26 0 0.0 0.0 0.00 0.00 0.00 83 1014.4
20260905041540 26 0 0.0 0.0 0.00 0.00 0.00 83 1014.4
20260905041019 26 0 0.0 0.0 0.00 0.00 0.00 83 1014.3
20260905040518 26 0 0.0 0.0 0.00 0.00 0.00 83 1014.3
20260905040040 26 0 0.0 0.0 0.00 0.00 0.00 83 1014.3
20260905035519 26 0 0.0 0.0 0.00 0.00 0.00 83 1014.3
20260905035020 26 0 0.0 0.0 0.00 0.00 0.00 83 1014.2
20260905034546 26 0 0.0 0.0 0.00 0.00 0.00 83 1014.3
20260905034018 26 0 0.0 1.6 0.00 0.00 0.00 83 1014.4
20260905033523 26 0 0.0 1.6 0.00 0.00 0.00 82 1014.3
20260905033037 27 0 0.0 0.0 0.00 0.00 0.00 82 1014.3
20260905032521 27 0 0.0 0.0 0.00 0.00 0.00 81 1014.2
20260905032021 27 0 0.0 0.0 0.00 0.00 0.00 81 1014.2
20260905031544 27 0 0.0 0.0 0.00 0.00 0.00 81 1014.3
20260905031020 27 0 0.0 0.0 0.00 0.00 0.00 81 1014.3
20260905030522 27 0 0.0 0.0 0.00 0.00 0.00 81 1014.4
20260905030040 27 0 0.0 0.0 0.00 0.00 0.00 81 1014.3
20260905025518 27 0 0.0 0.0 0.00 0.00 0.00 81 1014.3
20260905025024 27 0 0.0 0.0 0.00 0.00 0.00 81 1014.3
20260905024553 27 0 0.0 0.0 0.00 0.00 0.00 81 1014.4
20260905024019 27 0 0.0 0.0 0.00 0.00 0.00 80 1014.3
20260905023521 27 0 0.0 0.0 0.00 0.00 0.00 80 1014.4
20260905023043 27 0 0.0 0.0 0.00 0.00 0.00 79 1014.3
20260905022521 27 0 0.0 1.6 0.00 0.00 0.00 79 1014.4
20260905022018 27 0 0.0 1.6 0.00 0.00 0.00 79 1014.3
20260905021543 27 0 0.0 1.6 0.00 0.00 0.00 79 1014.2
20260905021021 27 0 0.0 1.6 0.00 0.00 0.00 78 1014.2
20260905020518 27 0 0.0 0.0 0.00 0.00 0.00 78 1014.2
20260905020042 28 0 0.0 0.0 0.00 0.00 0.00 78 1014.2
20260905015519 28 0 0.0 0.0 0.00 0.00 0.00 78 1014.2
20260905015021 28 0 0.0 0.0 0.00 0.00 0.00 77 1014.1
20260905014539 28 0 0.0 0.0 0.00 0.00 0.00 75 1014.1
20260905014019 28 0 0.0 0.0 0.00 0.00 0.00 74 1014.1
20260905013520 28 0 0.0 0.0 0.00 0.00 0.00 74 1014.1
20260905013038 28 0 0.0 0.0 0.00 0.00 0.00 74 1014.1
20260905012520 29 0 0.0 0.0 0.00 0.00 0.00 73 1014.0
20260905012019 29 0 0.0 0.0 0.00 0.00 0.00 73 1014.0
20260905011536 29 0 0.0 0.0 0.00 0.00 0.00 73 1013.9
20260905011018 30 0 0.0 0.0 0.00 0.00 0.00 73 1013.9
20260905010518 30 0 0.0 0.0 0.00 0.00 0.00 73 1013.8
20260905010035 30 0 0.0 0.0 0.00 0.00 0.00 73 1013.8
20260905005521 30 0 0.0 0.0 0.00 0.00 0.00 73 1013.8
20260905005016 30 0 0.0 0.0 0.00 0.00 0.00 73 1013.7
20260905004548 30 0 0.0 0.0 0.00 0.00 0.00 73 1013.7
20260905004019 30 0 0.0 0.0 0.00 0.00 0.00 72 1013.6
20260905003520 30 0 0.0 0.0 0.00 0.00 0.00 69 1013.6
20260905003039 31 0 0.0 0.0 0.00 0.00 0.00 69 1013.6
20260905002521 31 0 0.0 0.0 0.00 0.00 0.00 69 1013.6
20260905002020 31 0 0.0 0.0 0.00 0.00 0.00 67 1013.5
20260905001535 31 0 0.0 0.0 0.00 0.00 0.00 66 1013.6
20260905001018 31 0 0.0 0.0 0.00 0.00 0.00 66 1013.5
20260905000521 31 0 0.0 0.0 0.00 0.00 0.00 67 1013.5
20260905000034 31 0 0.0 0.0 0.00 0.00 0.00 67 1013.5
20260904235517 31 0 0.0 0.0 0.00 0.00 0.00 67 1013.5
20260904235018 31 0 0.0 0.0 0.00 0.00 0.00 66 1013.5
20260904234546 31 0 0.0 0.0 0.00 0.00 0.00 65 1013.5
20260904234020 31 0 0.0 1.6 0.00 0.00 0.00 64 1013.5
20260904233520 31 0 0.0 1.6 0.00 0.00 0.00 64 1013.5
20260904233053 32 0 0.0 1.6 0.00 0.00 0.00 65 1013.6
20260904232522 32 0 0.0 1.6 0.00 0.00 0.00 63 1013.6
20260904232019 32 0 0.0 1.6 0.00 0.00 0.00 64 1013.6
20260904231536 32 0 0.0 0.0 0.00 0.00 0.00 62 1013.6
20260904231018 33 0 0.0 0.0 0.00 0.00 0.00 61 1013.6
20260904230519 33 0 0.0 0.0 0.00 0.00 0.00 57 1013.4
20260904230035 34 0 0.0 1.6 0.00 0.00 0.00 57 1013.5
20260904225518 35 0 0.0 1.6 0.00 0.00 0.00 54 1013.5
20260904225017 35 0 0.0 1.6 0.00 0.00 0.00 53 1013.5
20260904224542 35 0 0.0 3.2 0.00 0.00 0.00 54 1013.5
20260904224020 35 0 0.0 3.2 0.00 0.00 0.00 56 1013.5
20260904223521 34 0 0.0 3.2 0.00 0.00 0.00 53 1013.5
20260904223042 34 0 0.0 4.8 0.00 0.00 0.00 53 1013.6
20260904222519 35 0 0.0 6.4 0.00 0.00 0.00 50 1013.6
20260904222019 35 0 1.6 6.4 0.00 0.00 0.00 50 1013.7
20260904221540 36 0 0.0 3.2 0.00 0.00 0.00 49 1013.7
20260904221019 36 0 0.0 3.2 0.00 0.00 0.00 51 1013.6
20260904220520 36 154 0.0 4.8 0.00 0.00 0.00 46 1013.5
20260904220040 36 0 0.0 11.3 0.00 0.00 0.00 48 1013.5
20260904215521 36 158 1.6 11.3 0.00 0.00 0.00 44 1013.6
20260904215023 36 188 4.8 11.3 0.00 0.00 0.00 44 1013.6
20260904214545 36 0 0.0 4.8 0.00 0.00 0.00 51 1013.6
20260904214026 36 341 0.0 4.8 0.00 0.00 0.00 45 1013.7
20260904213521 36 0 0.0 11.3 0.00 0.00 0.00 47 1013.7
20260904213041 36 0 1.6 11.3 0.00 0.00 0.00 46 1013.6
20260904212521 36 167 1.6 8.0 0.00 0.00 0.00 45 1013.8
20260904212025 35 0 1.6 3.2 0.00 0.00 0.00 49 1013.8
20260904211537 35 0 0.0 4.8 0.00 0.00 0.00 52 1013.8
20260904211021 36 324 0.0 4.8 0.00 0.00 0.00 46 1013.9
20260904210521 36 248 1.6 11.3 0.00 0.00 0.00 47 1013.9
20260904210042 36 0 1.6 11.3 0.00 0.00 0.00 45 1013.9
20260904205521 35 148 1.6 9.7 0.00 0.00 0.00 48 1014.0
20260904205020 35 13 1.6 8.0 0.00 0.00 0.00 47 1014.0
20260904204541 36 89 3.2 8.0 0.00 0.00 0.00 48 1014.1
20260904204017 36 347 0.0 8.0 0.00 0.00 0.00 48 1014.1
20260904203519 36 221 1.6 11.3 0.00 0.00 0.00 44 1014.2
20260904203039 36 183 3.2 11.3 0.00 0.00 0.00 47 1014.3
20260904202519 36 194 1.6 8.0 0.00 0.00 0.00 50 1014.4
20260904202022 35 0 0.0 3.2 0.00 0.00 0.00 49 1014.4
20260904201535 35 0 0.0 9.7 0.00 0.00 0.00 48 1014.5
20260904201020 36 119 4.8 9.7 0.00 0.00 0.00 46 1014.6
20260904200520 36 166 1.6 9.7 0.00 0.00 0.00 48 1014.7
20260904200045 36 132 4.8 9.7 0.00 0.00 0.00 48 1014.8
20260904195521 36 0 0.0 6.4 0.00 0.00 0.00 46 1015.0
20260904195020 36 0 1.6 6.4 0.00 0.00 0.00 46 1015.1
20260904194543 36 231 0.0 12.9 0.00 0.00 0.00 49 1015.2
20260904194019 36 226 1.6 12.9 0.00 0.00 0.00 47 1015.3
20260904193520 36 107 4.8 12.9 0.00 0.00 0.00 46 1015.4
20260904193046 35 165 1.6 11.3 0.00 0.00 0.00 48 1015.4
20260904192552 36 230 3.2 11.3 0.00 0.00 0.00 46 1015.5
20260904192020 36 0 3.2 11.3 0.00 0.00 0.00 50 1015.5
20260904191538 36 191 0.0 12.9 0.00 0.00 0.00 50 1015.6